Aeroporto :
LOGIN :

Iscrizione | Disclaimer

   EN    FR    IT 

 










Sommario :    VFR   VFR Marginale   IFR   IFR Intensivo   IFR Molto Intensivo
Visibilità : 
Base nubi : 
>= 8 km
>= 3000ft
5 / 8 km
1000 / 3000 ft
1500m / 5 km
500 / 1000 ft
800 / 1500m
200 / 500 ft
< 800m
< 200 ft
Simboli :   Temporali  Nebbia  Neve Forte  Precipitazioni Forti  Vento > 20 kt
SIGMETs :   Varie  Temporali  Ghiacco  Turbolenza  Onda orograficha  Ceneri Vulcaniche






- Altitudine del aeroporto : 289 ft


LFYR - Romorantin Pruniers

ULTIMO METAR :
  • 012330Z AUTO VRB02KT //// // SCT017 SCT040 BKN056 04/03 Q1020

METARs OBSOLETI :
  • 012300Z AUTO 31003KT 280V340 //// // FEW016 SCT034 04/03 Q1020
  • 012230Z AUTO 31003KT 270V350 //// // FEW016 BKN035 OVC054 05/03 Q1021
  • 012200Z AUTO 32004KT 290V350 //// // FEW037 SCT054 05/03 Q1021
  • 012130Z AUTO 34004KT 300V030 //// // NSC 06/03 Q1021
  • 012100Z AUTO 34004KT 280V020 //// // FEW019 06/03 Q1021

Previsioni scadute.



MetMap, La meteo Aeronautica in un colpo d'occhio ! - Copyright ORBIFLY Dicembre 2007 - Disclaimer

ORBIFLY MET'MAP TEAM :

Programmazione e sviluppo : Alexandra Zaïnal
Concezione : Baudouin d'Aumeries
Aiuto per la programmazione : Marc-Olivier Méhu
Supporto tecnico e logistico : Manuel Goepfert
Aiuto per la traduzione : Arnaldo La Scala

Contatto : metmap@orbifly.com




FONTI E CREDITI :

   NOAA